Location: ??????
(30.0081°N, 31.2109°E)
Time: 08:50:45
(UTC+00:00)

Cosmos 1933 Rocket - Pass Details

Date: 03 March 2021
Orbit: 607 x 630 km, 82.5° (Epoch: 15 April)

Event Time Altitude Azimuth Distance (km) Brightness Sun altitude
Rises 17:14:33 0° 196° (SSW) 2,850 7.1 -17.9°
Reaches altitude 10° 17:16:48 10° 202° (SSW) 1,952 6.3 -18.4°
Maximum altitude 17:20:59 50° 278° (W) 779 4.4 -19.3°
Drops below altitude 10° 17:25:14 10° 354° (N) 1,974 6.3 -20.2°
Sets 17:27:32 0° 360° (N) 2,886 7.1 -20.7°
